Location: Dappach
(48.9767°N, 9.6998°E)
Time: 03:53:00
(UTC+00:00)

GP-B - Pass Details

Date: 23 May 2024
Orbit: 624 x 629 km, 89.8° (Epoch: 19 June)

Event Time Altitude Azimuth Distance (km) Brightness Sun altitude
Rises 00:27:45 0° 351° (N) 2,925 7.7 -18.7°
Reaches altitude 10° 00:30:14 10° 339° (NNW) 2,012 6.4 -18.5°
Maximum altitude 00:33:54 26° 283° (WNW) 1,232 4.5 -18.4°
Enters shadow 00:35:18 22° 253° (WSW) 1,369 4.5 -18.3°
